Weather History for Joliet, IL

Change the Weather History Date:

Tuesday, March 25, 2014

  Actual Average (KLOT) Record (KLOT)
Temperature  
Mean Temperature 26 °F 42 °F  
Max Temperature 30 °F 52 °F 78 °F (2007)
Min Temperature 21 °F 33 °F 16 °F (2001)
Degree Days  
Heating Degree Days 40 23  
Month to date heating degree days 688  
Since 1 July heating degree days 5416  
Cooling Degree Days 0 0  
Month to date cooling degree days 0  
Year to date cooling degree days 0  
Moisture  
Dew Point 13 °F    
Average Humidity 58    
Maximum Humidity 89    
Minimum Humidity 35    
Precipitation  
Precipitation 0.00 in 0.09 in 0.34 in (2005)
Month to date precipitation 2.21  
Year to date precipitation 5.92  
Snow  
Snow 0.00 in 0.10 in 0.90 in (2005)
Month to date snowfall 4.1  
Since 1 July snowfall 31.5  
Snow Depth -    
Sea Level Pressure  
Sea Level Pressure 30.13 in    
Wind  
Wind Speed 8 mph (WNW)    
Max Wind Speed 16 mph    
Max Gust Speed 26 mph    
Visibility 10 miles    
Events Snow    
T = Trace of Precipitation, MM = Missing Value Source: NWS Daily Summary

Daily Weather History Graph

Daily Weather History Graph

Search for Another Location

Airport:

Trip Planner

Search our weather history database for the weather conditions in past years. The results will help you decide how hot, cold, wet, or windy it might be!

Date:

Astronomy

Mar. 25, 2014 Rise Set
Actual Time 6:47 AM CDT 7:10 PM CDT
Civil Twilight 6:19 AM CDT 7:38 PM CDT
Nautical Twilight 5:47 AM CDT 8:10 PM CDT
Astronomical Twilight 5:13 AM CDT 8:44 PM CDT
Moon 3:12 AM CDT 1:37 PM CDT
Length of Visible Light 13h 18m
Length of Day
12h 22m
Waning Crescent, 32% of the Moon is Illuminated
Mar 25
Waning Crescent
Mar 30
New
Apr 7
First Quarter
Apr 15
Full
Apr 22
Last Quarter

Hourly Weather History & Observations

Time (CDT) Temp. Windchill Dew Point Humidity Pressure Visibility Wind Dir Wind Speed Gust Speed Precip Events Conditions
12:15 AM 30.9 °F 25.2 °F 19.2 °F 62% 30.09 in 10.0 mi SW 5.8 mph - N/A   Overcast
12:35 AM 30.9 °F 24.3 °F 19.6 °F 63% 30.08 in 10.0 mi WSW 6.9 mph - N/A   Overcast
12:55 AM 30.2 °F 24.3 °F 20.8 °F 68% 30.07 in 10.0 mi WSW 5.8 mph - N/A   Scattered Clouds
1:15 AM 29.7 °F 24.7 °F 21.7 °F 72% 30.06 in 10.0 mi WSW 4.6 mph - N/A   Scattered Clouds
1:35 AM 29.3 °F 23.2 °F 22.1 °F 75% 30.06 in 10.0 mi WSW 5.8 mph - N/A   Mostly Cloudy
1:55 AM 29.3 °F 22.3 °F 22.6 °F 76% 30.05 in 10.0 mi WSW 6.9 mph - N/A   Overcast
2:15 AM 29.3 °F 21.5 °F 23.0 °F 77% 30.04 in 10.0 mi WSW 8.1 mph - N/A   Overcast
2:35 AM 29.1 °F 20.6 °F 25.3 °F 86% 30.05 in 0.5 mi NW 9.2 mph - N/A Snow Light Snow
2:55 AM 26.8 °F 22.8 °F 23.9 °F 89% 30.04 in 2.5 mi NW 3.5 mph - N/A Snow Light Snow
3:15 AM 27.1 °F 23.2 °F 23.5 °F 86% 30.04 in 10.0 mi West 3.5 mph - N/A   Mostly Cloudy
3:35 AM 27.1 °F - 23.4 °F 86% 30.03 in 10.0 mi Calm Calm - N/A   Overcast
3:55 AM 27.1 °F 21.8 °F 23.7 °F 87% 30.02 in 10.0 mi West 4.6 mph - N/A   Overcast
4:15 AM 27.1 °F 19.7 °F 23.7 °F 87% 30.02 in 10.0 mi West 6.9 mph - N/A   Mostly Cloudy
4:35 AM 27.3 °F 19.9 °F 23.2 °F 84% 30.02 in 10.0 mi WNW 6.9 mph - N/A   Mostly Cloudy
4:55 AM 27.1 °F 19.7 °F 22.1 °F 81% 30.02 in 10.0 mi WNW 6.9 mph - N/A   Overcast
5:15 AM 26.4 °F 16.6 °F 19.8 °F 76% 30.03 in 10.0 mi WNW 10.4 mph 17.3 mph N/A   Mostly Cloudy
5:35 AM 25.3 °F 15.3 °F 18.5 °F 75% 30.04 in 10.0 mi NW 10.4 mph 16.1 mph N/A   Scattered Clouds
5:55 AM 24.6 °F 17.7 °F 17.6 °F 75% 30.04 in 10.0 mi NW 5.8 mph - N/A   Clear
6:15 AM 23.7 °F 16.6 °F 16.7 °F 75% 30.05 in 10.0 mi NW 5.8 mph - N/A   Clear
6:35 AM 23.0 °F 17.0 °F 16.2 °F 75% 30.06 in 10.0 mi NW 4.6 mph - N/A   Clear
6:55 AM 22.3 °F 13.9 °F 16.2 °F 77% 30.06 in 10.0 mi NW 6.9 mph - N/A   Clear
7:15 AM 22.3 °F 14.9 °F 15.8 °F 76% 30.07 in 10.0 mi WNW 5.8 mph - N/A   Clear
7:35 AM 22.6 °F 16.5 °F 15.8 °F 75% 30.07 in 10.0 mi WNW 4.6 mph - N/A   Clear
7:55 AM 23.0 °F 14.7 °F 15.6 °F 73% 30.07 in 10.0 mi WNW 6.9 mph - N/A   Clear
8:15 AM 24.1 °F 15.2 °F 15.4 °F 70% 30.08 in 10.0 mi WNW 8.1 mph - N/A   Clear
8:35 AM 24.8 °F 14.6 °F 14.0 °F 64% 30.09 in 10.0 mi WNW 10.4 mph 18.4 mph N/A   Clear
8:55 AM 25.7 °F 17.1 °F 12.6 °F 58% 30.09 in 10.0 mi WNW 8.1 mph - N/A   Scattered Clouds
9:15 AM 26.2 °F 14.7 °F 11.8 °F 55% 30.09 in 10.0 mi WNW 13.8 mph 23.0 mph N/A   Scattered Clouds
9:35 AM 26.4 °F 15.0 °F 13.8 °F 59% 30.10 in 10.0 mi NW 13.8 mph 19.6 mph N/A   Mostly Cloudy
9:55 AM 25.7 °F 15.1 °F 16.5 °F 68% 30.11 in 10.0 mi NW 11.5 mph 18.4 mph N/A   Mostly Cloudy
10:15 AM 26.2 °F 15.2 °F 15.8 °F 65% 30.12 in 10.0 mi NW 12.7 mph 17.3 mph N/A   Mostly Cloudy
10:35 AM 27.1 °F 15.9 °F 14.2 °F 58% 30.12 in 10.0 mi NW 13.8 mph 19.6 mph N/A   Mostly Cloudy
10:55 AM 27.1 °F 17.5 °F 12.7 °F 55% 30.13 in 10.0 mi NW 10.4 mph 19.6 mph N/A   Mostly Cloudy
11:15 AM 28.0 °F 17.5 °F 12.7 °F 53% 30.13 in 10.0 mi NW 12.7 mph 18.4 mph N/A   Mostly Cloudy
11:35 AM 27.9 °F 18.4 °F 13.3 °F 54% 30.14 in 10.0 mi NW 10.4 mph 24.2 mph N/A   Mostly Cloudy
11:55 AM 27.3 °F 17.1 °F 13.5 °F 56% 30.14 in 7.0 mi NW 11.5 mph 17.3 mph N/A   Mostly Cloudy
12:15 PM 25.5 °F 16.9 °F 15.4 °F 66% 30.15 in 3.0 mi NW 8.1 mph 17.3 mph N/A Snow Light Snow
12:35 PM 28.0 °F 18.1 °F 10.6 °F 48% 30.15 in 10.0 mi WNW 11.5 mph 21.9 mph N/A   Mostly Cloudy
12:55 PM 27.0 °F 16.1 °F 10.0 °F 49% 30.15 in 7.0 mi NW 12.7 mph 20.7 mph N/A Snow Light Snow
1:15 PM 29.7 °F 22.0 °F 7.9 °F 40% 30.14 in 10.0 mi NW 8.1 mph 19.6 mph N/A   Scattered Clouds
1:35 PM 27.0 °F 16.7 °F 9.1 °F 47% 30.15 in 10.0 mi NW 11.5 mph 21.9 mph N/A   Mostly Cloudy
1:55 PM 28.4 °F 18.5 °F 6.3 °F 39% 30.15 in 10.0 mi NW 11.5 mph 21.9 mph N/A   Mostly Cloudy
2:15 PM 27.7 °F 17.1 °F 7.3 °F 42% 30.15 in 10.0 mi NNW 12.7 mph 19.6 mph N/A   Mostly Cloudy
2:35 PM 28.4 °F 17.5 °F 5.0 °F 37% 30.15 in 10.0 mi WNW 13.8 mph 19.6 mph N/A   Mostly Cloudy
2:55 PM 29.8 °F 20.3 °F 5.2 °F 35% 30.15 in 10.0 mi WNW 11.5 mph 18.4 mph N/A   Mostly Cloudy
3:15 PM 28.4 °F 17.0 °F 6.1 °F 39% 30.16 in 10.0 mi WNW 15.0 mph 26.5 mph N/A   Mostly Cloudy
3:35 PM 28.4 °F 16.6 °F 6.1 °F 39% 30.16 in 10.0 mi WNW 16.1 mph 20.7 mph N/A   Mostly Cloudy
3:55 PM 29.7 °F 18.6 °F 6.6 °F 38% 30.16 in 10.0 mi West 15.0 mph 23.0 mph N/A   Overcast
4:15 PM 27.7 °F 16.6 °F 6.3 °F 40% 30.16 in 10.0 mi NNW 13.8 mph 20.7 mph N/A   Overcast
4:35 PM 27.3 °F 18.4 °F 5.9 °F 40% 30.17 in 10.0 mi NW 9.2 mph 18.4 mph N/A   Mostly Cloudy
4:55 PM 27.9 °F 16.8 °F 4.8 °F 38% 30.16 in 10.0 mi NW 13.8 mph 19.6 mph N/A   Overcast
5:15 PM 27.5 °F 16.8 °F 3.6 °F 36% 30.17 in 10.0 mi WNW 12.7 mph 19.6 mph N/A   Mostly Cloudy
5:35 PM 26.6 °F 16.8 °F 4.1 °F 38% 30.18 in 10.0 mi WNW 10.4 mph 16.1 mph N/A   Scattered Clouds
5:55 PM 27.0 °F 15.6 °F 4.3 °F 38% 30.18 in 10.0 mi NW 13.8 mph 20.7 mph N/A   Scattered Clouds
6:15 PM 26.4 °F 16.0 °F 3.6 °F 38% 30.19 in 10.0 mi NW 11.5 mph 18.4 mph N/A   Scattered Clouds
6:35 PM 26.1 °F 17.6 °F 3.7 °F 38% 30.19 in 10.0 mi NW 8.1 mph 18.4 mph N/A   Scattered Clouds
6:50 PM 26.2 °F 15.2 °F 4.8 °F 40% 30.20 in 10.0 mi WNW 12.7 mph 18.4 mph N/A   Scattered Clouds
7:15 PM 25.7 °F 17.1 °F 5.7 °F 43% 30.20 in 10.0 mi WNW 8.1 mph - N/A   Mostly Cloudy
7:35 PM 25.3 °F 17.6 °F 6.1 °F 44% 30.20 in 10.0 mi NW 6.9 mph - N/A   Mostly Cloudy
7:55 PM 25.0 °F 18.1 °F 5.7 °F 44% 30.21 in 10.0 mi WNW 5.8 mph - N/A   Mostly Cloudy
8:15 PM 24.8 °F 16.9 °F 6.1 °F 45% 30.21 in 10.0 mi WNW 6.9 mph - N/A   Scattered Clouds
8:30 PM 24.4 °F 17.5 °F 6.1 °F 46% 30.22 in 10.0 mi NW 5.8 mph - N/A   Scattered Clouds
8:50 PM 23.9 °F 16.8 °F 6.6 °F 48% 30.22 in 10.0 mi NW 5.8 mph - N/A   Clear
9:15 PM 23.5 °F 16.4 °F 7.2 °F 50% 30.23 in 10.0 mi NW 5.8 mph - N/A   Clear
9:35 PM 23.5 °F 16.4 °F 7.3 °F 50% 30.23 in 10.0 mi NW 5.8 mph - N/A   Clear
9:55 PM 23.0 °F 14.7 °F 8.1 °F 53% 30.24 in 10.0 mi WNW 6.9 mph - N/A   Clear
10:15 PM 22.8 °F 16.7 °F 8.4 °F 54% 30.25 in 10.0 mi NW 4.6 mph - N/A   Clear
10:35 PM 22.5 °F 15.1 °F 8.6 °F 55% 30.25 in 10.0 mi NW 5.8 mph - N/A   Clear
10:55 PM 22.3 °F 16.1 °F 8.1 °F 54% 30.25 in 10.0 mi NW 4.6 mph - N/A   Clear
11:15 PM 22.1 °F 15.9 °F 7.9 °F 54% 30.26 in 10.0 mi NW 4.6 mph - N/A   Clear
11:35 PM 21.4 °F 13.8 °F 7.7 °F 56% 30.26 in 10.0 mi NW 5.8 mph - N/A   Clear
11:55 PM 21.2 °F 14.9 °F 8.4 °F 58% 30.26 in 10.0 mi WNW 4.6 mph - N/A   Clear